N0ERG Weather Reports


Display with metric or nautical units.
time (UTC)temp
F
wind
direction
speed
MPH
gust
MPH
rain 1hr
in
rain 24hr
in
rain mn
in
humidity
%
barometer
mb
20210517124105 51 200 0.0 0.0 0.00 0.00 0.00 91 1007.6
20210517123105 51 200 0.0 0.0 0.00 0.00 0.00 91 1007.6
20210517122107 51 200 0.0 0.0 0.00 0.00 0.00 92 1007.5
20210517121105 50 147 0.0 0.0 0.00 0.00 0.00 92 1007.4
20210517120109 50 140 0.0 0.0 0.00 0.00 0.00 92 1007.4
20210517115105 50 138 0.0 0.0 0.00 0.00 0.00 92 1007.4
20210517114108 50 180 0.0 0.0 0.00 0.00 0.00 92 1007.4
20210517113105 50 180 0.0 0.0 0.00 0.00 0.00 91 1007.5
20210517112107 50 181 0.0 0.0 0.00 0.00 0.00 91 1007.6
20210517111105 50 181 0.0 0.0 0.00 0.00 0.00 90 1007.6
20210517110105 50 182 0.0 0.0 0.00 0.00 0.00 90 1007.6
20210517105108 51 182 0.0 0.0 0.00 0.00 0.00 90 1007.5
20210517104114 51 183 0.0 0.0 0.00 0.00 0.00 90 1007.6
20210517103113 51 218 0.0 0.0 0.00 0.00 0.00 90 1007.5
20210517102105 51 224 0.0 0.0 0.00 0.00 0.00 89 1007.6
20210517101105 51 223 0.0 0.0 0.00 0.00 0.00 89 1007.7
20210517100106 52 222 0.0 0.0 0.00 0.00 0.00 89 1007.8
20210517095105 52 222 0.0 0.0 0.00 0.00 0.00 89 1007.9
20210517094105 52 215 0.0 0.0 0.00 0.00 0.00 89 1008.0
20210517093105 52 215 0.0 0.0 0.00 0.00 0.00 90 1008.1
20210517092106 52 215 0.0 0.0 0.00 0.00 0.00 90 1008.2
20210517091105 52 215 0.0 0.0 0.00 0.00 0.00 90 1008.3
20210517090105 52 215 0.0 0.0 0.00 0.00 0.00 90 1008.1
20210517085107 52 215 0.0 0.0 0.00 0.00 0.00 90 1008.2
20210517084104 52 215 0.0 0.0 0.00 0.00 0.00 90 1008.3
20210517083106 52 215 0.0 0.0 0.00 0.00 0.00 90 1008.4
20210517082105 52 215 0.0 0.0 0.00 0.00 0.00 90 1008.5
20210517081106 52 239 0.0 0.0 0.00 0.00 0.00 90 1008.6
20210517080105 52 240 0.0 0.0 0.00 0.00 0.00 90 1008.7
20210517075106 52 239 0.0 0.0 0.00 0.00 0.00 90 1008.7
20210517074106 52 240 0.0 0.0 0.00 0.00 0.00 90 1008.8
20210517073105 52 240 0.0 0.0 0.00 0.00 0.00 90 1008.8
20210517072104 52 240 0.0 0.0 0.00 0.00 0.00 90 1008.7
20210517071106 52 240 0.0 0.0 0.00 0.00 0.00 90 1008.7
20210517070105 52 251 0.0 0.0 0.00 0.00 0.00 89 1008.5
20210517065105 52 251 0.0 0.0 0.00 0.00 0.00 89 1008.3
20210517064106 52 252 0.0 0.0 0.00 0.00 0.00 88 1008.2
20210517063104 52 250 0.0 0.0 0.00 0.00 0.00 88 1008.2
20210517062104 53 250 0.0 0.0 0.00 0.00 0.00 88 1008.3
20210517061106 53 250 0.0 0.0 0.00 0.00 0.00 89 1008.5
20210517060106 52 204 0.0 0.0 0.00 0.00 0.00 89 1008.8
20210517055106 53 204 0.0 0.0 0.00 0.00 0.00 89 1008.9
20210517054105 53 205 0.0 0.0 0.00 0.00 0.00 89 1009.1
20210517053105 53 205 0.0 0.0 0.00 0.00 0.00 89 1009.1
20210517052106 53 205 0.0 0.0 0.00 0.00 0.00 89 1009.2
20210517051105 53 205 0.0 0.0 0.00 0.00 0.00 89 1009.3
20210517050106 53 203 0.0 0.0 0.00 0.00 0.00 89 1009.4
20210517045106 53 203 0.0 0.0 0.00 0.00 0.00 89 1009.4
20210517044105 53 169 0.0 0.0 0.00 0.00 0.00 89 1009.5
20210517043105 52 169 0.0 0.0 0.00 0.00 0.00 90 1009.5
20210517042105 52 170 0.0 0.0 0.00 0.00 0.00 90 1009.5
20210517041104 52 170 0.0 0.0 0.00 0.00 0.00 90 1009.5
20210517040105 52 170 0.0 0.0 0.00 0.00 0.00 90 1009.1
20210517035105 52 170 0.0 0.0 0.00 0.00 0.00 90 1008.9
20210517034104 52 171 0.0 0.0 0.00 0.00 0.00 89 1008.8
20210517033106 52 171 0.0 0.0 0.00 0.00 0.00 90 1008.8
20210517032106 52 171 0.0 0.0 0.00 0.00 0.00 88 1008.8
20210517031106 52 169 0.0 0.0 0.00 0.00 0.00 88 1008.3
20210517030106 52 169 0.0 0.0 0.00 0.00 0.00 87 1007.9
20210517025104 52 170 0.0 0.0 0.00 0.00 0.00 86 1007.8
20210517024105 53 171 0.0 0.0 0.00 0.00 0.00 84 1007.6
20210517023104 54 171 0.0 0.0 0.00 0.00 0.00 84 1007.8
20210517022106 54 190 0.0 0.0 0.00 0.00 0.00 83 1008.0
20210517021105 55 260 0.0 0.0 0.00 0.00 0.00 82 1007.8
20210517020105 55 260 0.0 0.0 0.00 0.00 0.00 81 1008.1
20210517015105 56 244 0.0 0.0 0.00 0.00 0.00 82 1008.1
20210517014104 56 259 0.0 0.0 0.00 0.00 0.00 82 1008.2
20210517013104 56 259 0.0 0.0 0.00 0.00 0.00 82 1008.1
20210517012106 55 261 0.0 3.0 0.00 0.00 0.00 82 1008.1
20210517011105 55 255 0.0 0.0 0.00 0.00 0.00 82 1008.3
20210517010104 56 249 0.0 0.0 0.00 0.00 0.00 82 1008.3
20210517005106 56 243 0.0 0.0 0.00 0.00 0.00 82 1008.3
20210517004104 55 298 0.0 0.0 0.00 0.00 0.00 82 1008.2
20210517003106 55 298 0.0 0.0 0.00 0.00 0.00 82 1008.3
20210517002105 55 298 0.0 0.0 0.00 0.00 0.00 82 1008.4
20210517001104 55 304 0.0 0.0 0.00 0.00 0.00 83 1008.3
20210517000105 56 323 0.0 0.0 0.00 0.00 0.00 83 1008.1
20210516235105 56 108 0.0 0.0 0.00 0.00 0.00 83 1008.0
20210516234104 56 305 0.0 0.0 0.00 0.00 0.00 84 1008.2
20210516233105 55 119 0.0 2.0 0.00 0.00 0.00 86 1008.4
20210516232104 55 301 0.0 2.0 0.00 0.00 0.00 86 1008.6
20210516231105 55 340 0.0 3.0 0.00 0.00 0.00 87 1008.8
20210516230104 55 129 0.0 3.0 0.00 0.00 0.00 87 1009.0
20210516225107 55 134 1.0 3.0 0.00 0.00 0.00 87 1009.1
20210516224104 54 330 0.0 1.0 0.00 0.00 0.00 87 1009.4
20210516223104 54 288 0.0 2.0 0.00 0.00 0.00 88 1009.2
20210516222105 54 306 0.0 5.0 0.00 0.00 0.00 88 1009.2
20210516221105 54 307 1.0 5.0 0.00 0.00 0.00 89 1009.0
20210516220104 54 124 0.0 0.0 0.00 0.00 0.00 89 1008.8
20210516215104 54 130 0.0 0.0 0.00 0.00 0.00 88 1008.6
20210516214104 54 132 0.0 0.0 0.00 0.00 0.00 88 1008.6
20210516213105 54 131 0.0 0.0 0.00 0.00 0.00 87 1008.7
20210516212105 54 145 0.0 0.0 0.00 0.00 0.00 86 1008.5
20210516211104 54 146 0.0 1.0 0.00 0.00 0.00 86 1008.7
20210516210104 54 131 1.0 3.0 0.00 0.00 0.00 87 1008.7
20210516205104 54 333 0.0 3.0 0.00 0.00 0.00 87 1008.5
20210516204104 54 328 1.0 7.0 0.00 0.00 0.00 87 1008.2
20210516203107 54 116 0.0 5.0 0.00 0.00 0.00 88 1008.0
20210516202104 54 134 1.0 5.0 0.00 0.00 0.00 87 1008.0
20210516201105 54 324 1.0 6.0 0.00 0.00 0.00 87 1008.0
20210516200104 54 309 1.0 5.0 0.00 0.00 0.00 86 1008.0
20210516195105 54 305 2.0 8.0 0.00 0.00 0.00 87 1008.0
20210516194105 54 293 2.0 6.0 0.00 0.00 0.00 87 1007.9
20210516193105 53 308 1.0 5.0 0.00 0.00 0.00 87 1008.0
20210516192104 53 305 2.0 3.0 0.00 0.00 0.00 87 1008.0
20210516191104 53 306 2.0 7.0 0.00 0.00 0.00 87 1007.8
20210516190104 53 292 1.0 7.0 0.00 0.00 0.00 88 1007.5
20210516185104 53 313 1.0 3.0 0.00 0.00 0.00 89 1007.5
20210516184104 53 319 2.0 7.0 0.00 0.00 0.00 89 1007.7
20210516183104 53 325 1.0 8.0 0.00 0.00 0.00 89 1007.7
20210516182104 53 332 0.0 5.0 0.00 0.00 0.00 90 1007.7
20210516181105 53 323 0.0 6.0 0.00 0.00 0.00 89 1007.6
20210516180106 53 319 0.0 5.0 0.00 0.00 0.00 89 1007.6
20210516175106 53 156 2.0 8.0 0.00 0.00 0.00 88 1007.6
20210516174107 53 330 2.0 9.0 0.00 0.00 0.00 87 1007.6
20210516173105 53 332 2.0 9.0 0.00 0.00 0.00 88 1007.5
20210516172107 54 102 2.0 9.0 0.00 0.00 0.00 88 1007.4
20210516171106 54 317 3.0 7.0 0.00 0.00 0.00 88 1007.3
20210516170105 54 132 1.0 5.0 0.00 0.00 0.00 88 1007.3
20210516165106 54 137 2.0 7.0 0.00 0.00 0.00 88 1007.2
20210516164105 55 124 2.0 6.0 0.00 0.00 0.00 87 1007.1
20210516163105 56 148 2.0 8.0 0.00 0.00 0.00 84 1007.0
20210516162105 57 90 2.0 3.0 0.00 0.00 0.00 83 1006.8
20210516161106 57 318 0.0 8.0 0.00 0.00 0.00 82 1006.7
20210516160105 57 80 3.0 7.0 0.00 0.00 0.00 81 1006.5
20210516155106 58 330 2.0 8.0 0.00 0.00 0.00 80 1006.4
20210516154105 58 78 4.0 8.0 0.00 0.00 0.00 78 1006.4
20210516153105 59 69 4.0 7.0 0.00 0.00 0.00 76 1006.0
20210516152106 58 202 2.0 9.0 0.00 0.00 0.00 77 1005.9
20210516151107 58 60 1.0 7.0 0.00 0.00 0.00 79 1005.9
20210516150105 57 287 3.0 7.0 0.00 0.00 0.00 78 1005.7
20210516145123 56 359 1.0 3.0 0.00 0.00 0.00 79 1005.7
20210516144107 56 287 0.0 2.0 0.00 0.00 0.00 80 1005.6
20210516143105 55 276 0.0 0.0 0.00 0.00 0.00 80 1005.6
20210516142106 54 242 0.0 0.0 0.00 0.00 0.00 82 1005.5
20210516141105 53 225 0.0 0.0 0.00 0.00 0.00 84 1005.4
20210516140106 52 230 0.0 0.0 0.00 0.00 0.00 86 1005.4
20210516135105 51 243 0.0 1.0 0.00 0.00 0.00 88 1005.3
20210516134105 51 220 0.0 0.0 0.00 0.00 0.00 90 1005.3
20210516133107 50 141 0.0 0.0 0.00 0.00 0.00 92 1005.3
20210516132106 49 137 0.0 1.0 0.00 0.00 0.00 94 1005.3
20210516131107 49 136 0.0 0.0 0.00 0.00 0.00 94 1005.2
20210516130107 48 142 0.0 0.0 0.00 0.00 0.00 94 1005.1
20210516125105 48 146 0.0 0.0 0.00 0.00 0.00 94 1005.1